Find Raduga

NORAD ID: 17046 Int'l Des: 1986-082 Owner: UNKS Country: SU operational
HEOCIRCULAR

Current View

Loading 3D Globe...

About Raduga

Description loading...

Upcoming Passes

Passes for default location (London). Set your location on the main map for personalized predictions.

Altitude History

Loading altitude history...

Two-Line Element Set

1 17046U 86082A 26146.55797147 -.00000011 00000-0 00000-0 0 9999
2 17046 11.1904 325.5356 0009856 191.3281 167.2647 0.98459388142697
Epoch: May 26, 2026 • Age: 7 hours

Current Status

Altitude 36305.4 km
Velocity 3.06 km/s
Sub-Earth Point 11.15°N, 122.66°W
Launch Date Oct 25, 1986
Age 39.5 years
Type other

Technical Details

Classification Payload
Mass 1965.00 kg
Dry Mass 1800.00 kg
Total Mass 1965.00 kg
Length 5.50 m
Diameter 2.50 m
Span 9.50 m
Shape Step Cyl + 2 Pan
Manufacturer NPOPM
Bus Type Raduga
Phase Status In Orbit
Owner/State UNKS/SU

Most Searched